Vorticity
9 18 3 10 10 10 4 9 6 7 9 6 6 6 5 5 6 7 7 7 6 7 6 7 5 4 4 5 5 6 6 3 4 7 9 7 8 5 8 5 3 12 12 9 9
8 11 5 9 12 8 5 12 7 8 6 8 6 5 4 3 4 5 5 5 5 3 2 3 3 4 5 8 7 9 6 5 7 9 8 5 7 4 7 5 10 10 8 7 5
8 6 19 -3 12 9 6 10 8 8 7 7 4 5 3 3 6 7 7 7 1 4 2 2 4 5 4 5 5 8 8 9 5 8 12 9 8 6 5 5 6 8 8 12 12
7 3 17 4 9 11 7 4 10 7 8 7 5 4 3 3 4 5 6 3 1 4 3 3 3 2 5 6 4 10 11 12 6 3 5 6 10 8 6 5 5 8 4 3 7
4 4 10 14 10 11 8 5 9 9 6 8 6 5 4 3 7 1 6 5 4 7 4 4 4 2 5 6 7 5 5 7 7 -1 8 9 17 12 9 7 4 7 4 6 5
1 11 8 19 3 12 10 6 7 12 6 5 7 7 4 2 3 3 3 2 2 5 7 8 6 5 7 7 6 6 7 3 1 -4 5 7 7 7 2 0 5 6 5 4 3
5 12 6 24 12 10 11 7 6 10 8 7 8 7 7 3 5 4 3 3 3 3 4 10 4 9 6 4 5 3 6 5 -0 3 6 5 6 5 5 2 5 8 10 9 7
11 12 5 13 12 8 11 9 7 6 7 6 6 5 5 3 4 3 6 6 9 8 8 9 11 9 8 9 7 3 6 7 4 7 3 6 5 4 5 4 5 8 17 9 4
7 10 4 13 8 9 10 9 9 6 4 3 1 1 8 4 3 5 10 11 9 10 7 8 8 6 8 6 6 4 6 2 4 3 4 10 -2 5 5 8 7 6 8 7 5
8 8 6 12 14 5 9 12 8 7 6 5 5 6 3 5 7 8 11 9 9 8 5 5 5 8 6 5 5 2 1 3 3 3 5 7 7 6 8 5 7 7 3 2 4
10 6 7 13 13 8 7 10 9 7 4 5 6 4 11 9 8 10 15 8 6 6 7 8 7 6 3 6 1 1 3 5 6 5 2 5 7 2 5 10 8 7 6 4 0
9 5 6 14 10 9 6 11 10 8 13 7 6 5 8 9 10 11 8 9 9 7 5 6 2 5 5 4 1 4 6 3 1 3 10 0 -0 -1 6 8 9 5 4 7 8
4 5 6 12 11 8 5 7 8 7 3 6 4 7 8 15 10 8 5 8 7 7 5 5 5 6 2 4 7 6 8 2 2 2 9 17 6 9 9 12 14 12 8 7 7
2 3 9 10 9 8 6 6 5 6 7 -2 9 17 13 9 5 7 8 3 5 6 6 2 6 3 4 5 7 6 8 4 3 11 10 0 5 5 4 -2 17 11 10 10 7
16 7 7 8 10 8 4 6 4 3 7 4 7 3 4 -1 7 10 11 10 8 6 6 7 5 4 3 4 6 7 8 9 10 8 6 9 12 12 11 7 5 -1 4 13 13
6 14 8 8 7 7 8 4 5 2 4 -6 -11 6 -1 -4 1 6 5 2 5 8 9 4 5 6 6 7 5 6 10 9 7 10 6 13 6 9 10 13 12 8 6 3 2
-4 14 9 4 6 9 5 8 6 3 2 3 6 2 0 3 -0 2 6 11 2 4 0 3 1 5 6 9 8 9 12 9 3 4 8 12 12 14 15 7 -2 -3 -1 -1 -0
10 8 11 4 2 5 7 4 2 2 1 5 2 8 -1 -3 6 0 8 6 13 12 5 8 5 5 11 10 9 10 11 11 12 20 14 10 3 8 6 6 7 0 -2 1 6
14 11 3 8 1 5 1 9 4 4 -1 -0 1 1 -1 5 -10 3 9 9 7 7 10 14 9 8 8 10 9 6 15 11 9 10 12 6 2 2 2 -0 0 3 0 11 7
7 5 16 8 -1 -1 5 -0 -1 8 0 0 -2 4 7 -6 7 12 7 8 12 4 5 10 11 7 8 13 16 14 11 11 6 8 3 5 4 -2 7 6 4 9 13 0 17
25 7 4 -5 12 -5 -6 15 14 0 12 5 13 5 2 -5 7 10 8 8 7 5 6 8 6 10 11 11 13 15 12 12 1 -4 4 7 2 3 3 12 14 14 11 12 15
-4 -5 -5 -11 8 -5 7 -3 -6 -3 9 2 20 4 8 3 -1 10 9 9 7 9 9 10 7 7 11 17 13 17 11 -3 -6 3 1 0 2 1 9 10 10 10 15 12 13
1 -5 -8 -8 0 4 3 7 8 7 7 5 5 5 15 5 3 10 14 9 4 7 5 9 5 10 14 12 11 4 0 -2 3 4 2 -2 3 12 10 7 8 10 6 14 17
7 17 23 23 23 -3 3 6 19 15 4 5 7 6 1 11 11 15 13 3 5 11 14 21 18 17 10 12 9 7 3 4 0 -3 16 6 11 14 16 13 12 12 19 19 26
11 14 3 0 -3 18 17 8 2 1 18 -9 -5 6 -9 22 7 11 8 5 10 18 22 22 17 8 3 7 8 8 3 7 5 9 6 17 11 20 22 21 21 23 15 17 11
12 -19 -0 21 2 -10 -8 5 11 14 22 5 24 1 26 7 16 8 6 14 17 28 16 2 6 8 -3 9 6 3 9 14 17 17 16 20 15 19 12 12 13 6 15 14 16
16 3 -24 -22 -13 -25 -22 -4 -13 -3 19 12 1 7 28 24 6 8 15 24 26 10 2 1 6 9 8 7 4 -6 21 7 14 10 24 19 15 11 9 14 29 32 35 26 13
Height
5832 5830 5828 5826 5827 5826 5825 5824 5823 5823 5822 5821 5821 5821 5821 5820 5819 5818 5819 5819 5818 5818 5817 5817 5818 5818 5817 5817 5818 5818 5819 5817 5817 5815 5816 5815 5813 5812 5812 5813 5814 5812 5811 5810 5810
5829 5827 5825 5824 5822 5822 5822 5822 5821 5821 5821 5821 5819 5819 5819 5819 5819 5818 5818 5818 5817 5816 5817 5817 5816 5816 5816 5817 5817 5816 5815 5813 5812 5811 5812 5811 5810 5808 5810 5809 5810 5809 5807 5806 5806
5826 5823 5821 5819 5818 5818 5818 5818 5818 5818 5818 5818 5817 5817 5817 5817 5817 5817 5817 5817 5817 5817 5817 5815 5815 5814 5813 5814 5815 5815 5813 5812 5810 5810 5809 5808 5807 5805 5804 5804 5805 5804 5803 5803 5802
5821 5819 5817 5814 5814 5814 5814 5814 5814 5814 5816 5815 5814 5814 5814 5814 5815 5814 5814 5815 5814 5814 5814 5814 5812 5811 5810 5810 5810 5811 5810 5810 5808 5805 5805 5805 5804 5804 5801 5802 5801 5800 5798 5797 5795
5816 5814 5812 5810 5809 5810 5809 5809 5810 5811 5811 5812 5811 5811 5811 5811 5812 5811 5811 5811 5811 5811 5811 5810 5809 5808 5808 5806 5807 5807 5805 5805 5803 5801 5799 5800 5803 5802 5802 5797 5796 5795 5794 5793 5792
5811 5809 5807 5805 5804 5805 5804 5804 5804 5807 5808 5807 5808 5809 5808 5808 5808 5808 5807 5806 5807 5807 5809 5808 5806 5805 5805 5802 5803 5802 5802 5801 5799 5797 5797 5797 5799 5796 5795 5792 5793 5794 5791 5789 5787
5805 5803 5801 5799 5798 5799 5799 5799 5799 5802 5803 5802 5804 5805 5804 5803 5805 5806 5803 5802 5802 5802 5801 5803 5802 5801 5801 5799 5798 5797 5797 5795 5795 5793 5792 5791 5792 5790 5789 5787 5789 5789 5788 5786 5783
5798 5797 5796 5794 5793 5794 5794 5795 5794 5795 5798 5798 5799 5801 5801 5797 5799 5800 5799 5797 5797 5796 5796 5796 5797 5796 5796 5795 5793 5792 5792 5793 5791 5789 5788 5787 5786 5786 5785 5783 5783 5784 5783 5779 5777
5792 5791 5789 5788 5787 5789 5788 5789 5788 5789 5791 5793 5794 5795 5796 5794 5793 5794 5792 5791 5790 5790 5789 5789 5791 5791 5790 5788 5787 5787 5787 5786 5787 5785 5781 5780 5780 5780 5778 5776 5776 5776 5774 5772 5770
5785 5785 5783 5782 5782 5782 5782 5783 5782 5784 5785 5786 5787 5791 5790 5789 5789 5789 5785 5785 5784 5784 5785 5784 5784 5785 5783 5780 5781 5780 5779 5778 5779 5780 5773 5773 5772 5772 5769 5768 5768 5767 5765 5763 5761
5778 5778 5777 5776 5775 5776 5777 5777 5778 5779 5780 5779 5780 5782 5783 5782 5781 5782 5782 5780 5779 5778 5779 5778 5779 5777 5775 5776 5775 5773 5771 5770 5771 5769 5765 5767 5762 5762 5762 5761 5760 5758 5755 5752 5749
5771 5771 5770 5769 5768 5770 5771 5770 5771 5773 5778 5772 5772 5772 5775 5777 5776 5776 5777 5776 5775 5773 5772 5773 5772 5771 5771 5770 5768 5766 5765 5765 5763 5762 5759 5758 5756 5754 5756 5753 5750 5748 5745 5741 5740
5764 5763 5762 5763 5763 5765 5764 5764 5764 5765 5768 5773 5769 5768 5769 5770 5770 5770 5770 5770 5769 5768 5766 5766 5764 5764 5763 5760 5759 5757 5756 5754 5753 5750 5748 5747 5746 5747 5746 5742 5742 5739 5736 5735 5733
5755 5755 5755 5756 5759 5759 5758 5756 5758 5759 5757 5764 5765 5764 5764 5764 5765 5764 5764 5764 5762 5762 5762 5761 5758 5755 5754 5755 5753 5751 5749 5746 5743 5740 5738 5734 5735 5737 5735 5735 5734 5729 5728 5726 5724
5746 5746 5746 5747 5752 5753 5752 5749 5750 5753 5750 5754 5756 5757 5758 5758 5758 5758 5756 5754 5754 5753 5754 5752 5749 5748 5748 5746 5743 5742 5738 5736 5733 5730 5728 5724 5726 5725 5720 5719 5715 5713 5712 5712 5712
5737 5737 5736 5738 5742 5744 5745 5744 5743 5745 5739 5746 5748 5749 5750 5750 5750 5748 5748 5747 5746 5744 5742 5741 5740 5739 5737 5734 5731 5729 5726 5724 5722 5719 5717 5718 5710 5716 5711 5708 5705 5702 5699 5699 5697
5728 5728 5728 5729 5733 5733 5735 5736 5736 5732 5736 5738 5739 5738 5738 5738 5737 5738 5737 5737 5736 5732 5732 5731 5730 5728 5725 5723 5720 5717 5714 5710 5708 5706 5705 5704 5698 5697 5698 5694 5692 5690 5688 5686 5682
5718 5718 5719 5720 5721 5723 5725 5727 5720 5721 5728 5729 5728 5729 5728 5728 5727 5726 5724 5723 5721 5720 5719 5718 5718 5717 5716 5711 5707 5704 5702 5697 5692 5691 5692 5688 5684 5686 5681 5679 5677 5677 5675 5671 5668
5706 5704 5706 5710 5711 5712 5714 5712 5710 5715 5715 5717 5718 5717 5717 5716 5716 5714 5713 5712 5709 5709 5708 5704 5703 5702 5700 5698 5695 5691 5688 5684 5679 5678 5676 5676 5676 5671 5667 5665 5664 5661 5659 5655 5650
5691 5692 5694 5696 5697 5698 5698 5698 5696 5703 5703 5705 5706 5706 5704 5704 5703 5701 5700 5697 5696 5695 5693 5691 5691 5690 5687 5684 5681 5679 5675 5672 5667 5663 5660 5664 5664 5654 5651 5647 5643 5642 5641 5637 5633
5676 5675 5680 5683 5681 5681 5680 5683 5686 5688 5692 5692 5694 5692 5694 5693 5691 5690 5686 5684 5681 5679 5678 5677 5677 5678 5674 5672 5670 5667 5663 5659 5655 5650 5645 5644 5653 5643 5636 5630 5626 5622 5619 5618 5615
5661 5659 5664 5667 5664 5666 5669 5671 5674 5676 5678 5678 5680 5681 5680 5680 5677 5676 5674 5672 5669 5666 5665 5663 5659 5661 5661 5658 5656 5655 5653 5647 5639 5639 5630 5625 5637 5634 5625 5617 5610 5603 5597 5595 5599
5647 5644 5642 5649 5647 5651 5654 5659 5661 5661 5664 5664 5663 5665 5664 5663 5662 5661 5660 5658 5656 5654 5650 5649 5645 5645 5648 5645 5643 5642 5640 5636 5628 5620 5615 5607 5611 5618 5608 5599 5596 5588 5583 5579 5579
5631 5624 5625 5630 5636 5639 5641 5645 5648 5649 5649 5648 5649 5649 5648 5648 5647 5645 5644 5642 5642 5640 5636 5632 5631 5632 5634 5630 5628 5630 5630 5622 5616 5607 5603 5598 5589 5598 5590 5585 5584 5580 5576 5570 5566
5611 5608 5613 5615 5626 5630 5631 5631 5632 5632 5634 5632 5632 5635 5633 5632 5630 5629 5630 5629 5629 5626 5621 5618 5618 5619 5622 5616 5615 5619 5617 5605 5600 5597 5584 5584 5575 5574 5571 5568 5567 5566 5563 5562 5558
5589 5595 5602 5605 5609 5611 5612 5616 5619 5619 5619 5618 5619 5619 5615 5616 5616 5615 5616 5615 5613 5613 5609 5608 5605 5604 5611 5601 5600 5604 5603 5593 5589 5584 5575 5567 5561 5564 5556 5553 5552 5552 5551 5550 5548
5577 5583 5588 5589 5595 5597 5602 5604 5605 5605 5603 5603 5604 5600 5600 5600 5599 5600 5600 5602 5600 5601 5598 5594 5592 5589 5597 5585 5585 5590 5592 5580 5573 5569 5563 5555 5553 5551 5546 5543 5541 5539 5538 5538 5537